N2UFM Weather Reports


time (UTC)temp
C
wind
direction
speed
KPH
gust
KPH
rain 1hr
cm
rain 24hr
cm
rain mn
cm
humidity
%
barometer
mb
20260504214824 23 285 3.2 25.7 0.00 0.00 0.00 33 1010.5
20260504214324 23 285 3.2 25.7 0.00 0.00 0.00 33 1010.5
20260504213824 23 285 3.2 25.7 0.00 0.00 0.00 33 1010.6
20260504213323 23 268 3.2 25.7 0.00 0.00 0.00 33 1010.6
20260504212823 24 257 4.8 25.7 0.00 0.00 0.00 33 1010.6
20260504212323 23 268 1.6 25.7 0.00 0.00 0.00 33 1010.6
20260504211823 24 268 3.2 25.7 0.00 0.00 0.00 33 1010.7
20260504211323 24 237 1.6 25.7 0.00 0.00 0.00 33 1010.7
20260504210822 23 261 3.2 25.7 0.00 0.00 0.00 33 1010.6
20260504210322 24 231 1.6 25.7 0.00 0.00 0.00 33 1010.6
20260504205822 24 230 3.2 25.7 0.00 0.00 0.00 33 1010.6
20260504205322 23 216 1.6 25.7 0.00 0.00 0.00 33 1010.6
20260504204822 23 233 3.2 25.7 0.00 0.00 0.00 33 1010.7
20260504204321 24 220 4.8 25.7 0.00 0.00 0.00 33 1010.7
20260504203821 24 245 3.2 25.7 0.00 0.00 0.00 33 1010.7
20260504203321 24 271 4.8 25.7 0.00 0.00 0.00 33 1010.7
20260504202821 23 229 1.6 25.7 0.00 0.00 0.00 33 1010.7
20260504202321 23 226 3.2 25.7 0.00 0.00 0.00 34 1010.7
20260504201821 24 225 4.8 25.7 0.00 0.00 0.00 32 1010.8
20260504201320 24 257 1.6 25.7 0.00 0.00 0.00 34 1010.8
20260504200820 23 216 4.8 25.7 0.00 0.00 0.00 33 1010.8
20260504200320 23 210 3.2 25.7 0.00 0.00 0.00 33 1010.9
20260504195820 23 240 3.2 25.7 0.00 0.00 0.00 34 1010.9
20260504195320 23 218 3.2 25.7 0.00 0.00 0.00 34 1010.9
20260504194820 24 243 8.0 25.7 0.00 0.00 0.00 34 1011.0
20260504194319 24 227 3.2 25.7 0.00 0.00 0.00 35 1011.0
20260504193819 23 155 4.8 25.7 0.00 0.00 0.00 35 1011.1
20260504193319 23 286 8.0 25.7 0.00 0.00 0.00 35 1011.0
20260504192819 23 258 3.2 25.7 0.00 0.00 0.00 35 1011.1
20260504192319 23 208 3.2 25.7 0.00 0.00 0.00 34 1011.2
20260504191819 23 214 3.2 25.7 0.00 0.00 0.00 35 1011.2
20260504191318 23 209 4.8 25.7 0.00 0.00 0.00 34 1011.3
20260504190818 23 225 3.2 25.7 0.00 0.00 0.00 34 1011.3
20260504190318 23 211 9.7 25.7 0.00 0.00 0.00 35 1011.5
20260504185818 23 222 1.6 25.7 0.00 0.00 0.00 35 1011.4
20260504185318 23 208 4.8 25.7 0.00 0.00 0.00 35 1011.6
20260504184818 23 230 4.8 25.7 0.00 0.00 0.00 35 1011.7
20260504184317 23 261 3.2 25.7 0.00 0.00 0.00 35 1011.7
20260504183817 23 292 4.8 25.7 0.00 0.00 0.00 34 1011.7
20260504183317 23 282 3.2 25.7 0.00 0.00 0.00 35 1011.9
20260504182817 23 240 4.8 25.7 0.00 0.00 0.00 34 1011.8
20260504182317 23 223 3.2 25.7 0.00 0.00 0.00 35 1011.8
20260504181817 23 237 4.8 25.7 0.00 0.00 0.00 34 1011.8
20260504181316 23 114 1.6 25.7 0.00 0.00 0.00 35 1011.9
20260504180816 22 208 3.2 25.7 0.00 0.00 0.00 35 1012.1
20260504180316 23 264 8.0 25.7 0.00 0.00 0.00 35 1012.1
20260504175816 23 224 3.2 25.7 0.00 0.00 0.00 36 1012.1
20260504175316 22 232 8.0 25.7 0.00 0.00 0.00 35 1012.3
20260504174816 22 240 9.7 25.7 0.00 0.00 0.00 36 1012.4
20260504174316 22 220 3.2 25.7 0.00 0.00 0.00 36 1012.3
20260504173815 22 238 3.2 25.7 0.00 0.00 0.00 36 1012.3
20260504173315 22 210 3.2 25.7 0.00 0.00 0.00 36 1012.4
20260504172815 22 228 8.0 25.7 0.00 0.00 0.00 38 1012.5
20260504172315 22 215 4.8 25.7 0.00 0.00 0.00 38 1012.7
20260504171815 21 227 4.8 25.7 0.00 0.00 0.00 38 1012.6
20260504171315 22 222 12.9 25.7 0.00 0.00 0.00 38 1012.6
20260504170815 22 281 3.2 25.7 0.00 0.00 0.00 37 1012.8
20260504170314 21 225 1.6 25.7 0.00 0.00 0.00 38 1012.7
20260504160313 20 282 4.8 22.5 0.00 0.00 0.00 37 1013.6
20260504150811 20 238 8.0 22.5 0.00 0.00 0.00 38 1014.3
20260504150311 20 243 4.8 22.5 0.00 0.00 0.00 39 1014.2
20260504141309 18 257 4.8 22.5 0.00 0.00 0.00 45 1014.5
20260504140809 18 222 4.8 22.5 0.00 0.00 0.00 46 1014.6
20260504140309 18 223 4.8 22.5 0.00 0.00 0.00 46 1014.6
20260504130807 16 280 3.2 16.1 0.00 0.00 0.00 52 1015.3
20260504130307 16 150 3.2 16.1 0.00 0.00 0.00 54 1015.3
20260504120305 13 190 1.6 14.5 0.00 0.00 0.00 62 1015.4
20260504110303 10 223 1.6 14.5 0.00 0.00 0.00 70 1015.7
20260504100301 8 211 1.6 14.5 0.00 0.00 0.00 71 1015.5
20260504081758 9 236 0.0 9.7 0.00 0.00 0.00 60 1015.1
20260504081258 9 234 0.0 9.7 0.00 0.00 0.00 60 1015.1
20260504080758 10 223 1.6 9.7 0.00 0.00 0.00 59 1015.1
20260504080257 10 212 1.6 9.7 0.00 0.00 0.00 59 1015.1
20260504070256 9 234 1.6 9.7 0.00 0.00 0.00 58 1014.9
20260504050752 10 203 0.0 3.2 0.00 0.00 0.00 55 1014.5
20260504050252 10 203 0.0 3.2 0.00 0.00 0.00 56 1014.5
20260504045752 10 203 0.0 3.2 0.00 0.00 0.00 55 1014.5
20260504045251 10 203 0.0 3.2 0.00 0.00 0.00 55 1014.4
20260504044751 10 200 0.0 3.2 0.00 0.00 0.00 55 1014.5
20260504044251 10 215 0.0 3.2 0.00 0.00 0.00 55 1014.4
20260504043751 10 215 0.0 3.2 0.00 0.00 0.00 55 1014.4
20260504043251 10 213 0.0 3.2 0.00 0.00 0.00 55 1014.3
20260504042751 10 213 0.0 3.2 0.00 0.00 0.00 55 1014.4
20260504042251 10 213 0.0 3.2 0.00 0.00 0.00 55 1014.3
20260504041750 10 213 0.0 3.2 0.00 0.00 0.00 55 1014.2
20260504041250 10 213 0.0 3.2 0.00 0.00 0.00 54 1014.3
20260504040750 10 210 0.0 3.2 0.00 0.00 0.00 55 1014.2
20260504040250 10 225 0.0 3.2 0.00 0.00 0.00 55 1014.2
20260504035750 10 225 0.0 27.4 0.00 0.00 0.00 54 1014.1
20260504035250 10 225 0.0 27.4 0.00 0.00 0.00 54 1014.1
20260504034749 10 225 0.0 27.4 0.00 0.00 0.00 53 1014.0
20260504034249 10 218 0.0 27.4 0.00 0.00 0.00 53 1014.1
20260504033749 11 218 0.0 27.4 0.00 0.00 0.00 52 1014.1
20260504033249 11 218 0.0 27.4 0.00 0.00 0.00 52 1014.1
20260504032749 11 218 0.0 27.4 0.00 0.00 0.00 52 1014.0
20260504032249 11 218 0.0 27.4 0.00 0.00 0.00 52 1013.9
20260504031748 11 218 0.0 27.4 0.00 0.00 0.00 52 1013.9
20260504031248 11 219 0.0 27.4 0.00 0.00 0.00 52 1013.8
20260504030748 11 219 0.0 27.4 0.00 0.00 0.00 52 1013.8
20260504030248 11 219 0.0 27.4 0.00 0.00 0.00 52 1013.8
20260504025748 11 186 0.0 27.4 0.00 0.00 0.00 53 1013.9
20260504025247 10 186 0.0 27.4 0.00 0.00 0.00 53 1013.9
20260504024747 11 350 0.0 27.4 0.00 0.00 0.00 54 1013.9
20260504024247 11 350 0.0 27.4 0.00 0.00 0.00 54 1013.9
20260504023747 11 350 0.0 27.4 0.00 0.00 0.00 53 1013.9
20260504023247 11 350 0.0 27.4 0.00 0.00 0.00 53 1014.0
20260504022747 11 350 0.0 27.4 0.00 0.00 0.00 53 1013.9
20260504022247 11 350 0.0 27.4 0.00 0.00 0.00 52 1013.8
20260504021746 11 350 0.0 27.4 0.00 0.00 0.00 52 1013.9
20260504021246 11 350 0.0 27.4 0.00 0.00 0.00 51 1013.9
20260504020746 11 350 0.0 27.4 0.00 0.00 0.00 50 1013.9
20260504020246 11 350 0.0 27.4 0.00 0.00 0.00 48 1013.9
20260504015746 11 350 0.0 27.4 0.00 0.00 0.00 48 1013.9
20260504015246 11 350 0.0 27.4 0.00 0.00 0.00 47 1013.9
20260504014746 12 350 0.0 27.4 0.00 0.00 0.00 47 1013.8
20260504014245 12 350 0.0 27.4 0.00 0.00 0.00 47 1013.8
20260504013745 12 350 0.0 27.4 0.00 0.00 0.00 46 1013.7
20260504013245 12 350 0.0 27.4 0.00 0.00 0.00 46 1013.6
20260504012745 12 350 0.0 27.4 0.00 0.00 0.00 44 1013.6
20260504012245 12 350 0.0 27.4 0.00 0.00 0.00 43 1013.5
20260504011745 13 350 0.0 27.4 0.00 0.00 0.00 42 1013.5
20260504011245 13 350 0.0 27.4 0.00 0.00 0.00 42 1013.5
20260504010744 13 350 0.0 27.4 0.00 0.00 0.00 41 1013.4
20260504010244 13 350 0.0 27.4 0.00 0.00 0.00 41 1013.3
20260504005744 13 350 0.0 27.4 0.00 0.00 0.00 40 1013.3
20260504005244 13 350 0.0 27.4 0.00 0.00 0.00 40 1013.2
20260504004744 13 350 1.6 27.4 0.00 0.00 0.00 39 1013.2
20260504004244 13 285 1.6 27.4 0.00 0.00 0.00 39 1013.1
20260504003744 13 277 0.0 27.4 0.00 0.00 0.00 39 1013.0
20260504003243 13 288 0.0 27.4 0.00 0.00 0.00 39 1012.9
20260504002743 13 217 0.0 27.4 0.00 0.00 0.00 39 1012.8
20260504002243 13 217 0.0 27.4 0.00 0.00 0.00 39 1012.7
20260504001743 13 212 0.0 27.4 0.00 0.00 0.00 38 1012.5
20260504001243 13 210 0.0 27.4 0.00 0.00 0.00 38 1012.5
20260504000742 14 210 1.6 27.4 0.00 0.00 0.00 37 1012.3
20260504000242 14 210 0.0 27.4 0.00 0.00 0.00 37 1012.4
20260503235742 14 198 0.0 27.4 0.00 0.00 0.00 36 1012.3
20260503235242 14 274 0.0 27.4 0.00 0.00 0.00 36 1012.3
20260503234742 15 274 0.0 27.4 0.00 0.00 0.00 36 1012.3
20260503234241 15 265 0.0 27.4 0.00 0.00 0.00 35 1012.3
20260503233741 15 107 1.6 27.4 0.00 0.00 0.00 35 1012.2
20260503233241 15 261 0.0 27.4 0.00 0.00 0.00 34 1012.2
20260503232741 15 268 0.0 27.4 0.00 0.00 0.00 34 1012.1
20260503232241 15 273 4.8 27.4 0.00 0.00 0.00 33 1012.1
20260503231741 15 274 1.6 27.4 0.00 0.00 0.00 33 1012.1
20260503231241 15 251 3.2 27.4 0.00 0.00 0.00 33 1012.0
20260503230740 15 300 3.2 27.4 0.00 0.00 0.00 33 1012.0
20260503230240 15 205 1.6 27.4 0.00 0.00 0.00 33 1011.9
20260503225740 16 283 3.2 27.4 0.00 0.00 0.00 32 1012.0
20260503225240 16 274 1.6 27.4 0.00 0.00 0.00 32 1012.0
20260503224740 16 282 1.6 27.4 0.00 0.00 0.00 32 1011.9
20260503224240 16 253 1.6 27.4 0.00 0.00 0.00 31 1011.9
20260503223740 16 239 1.6 27.4 0.00 0.00 0.00 31 1011.8
20260503223239 16 237 1.6 27.4 0.00 0.00 0.00 30 1011.8
20260503222739 16 269 1.6 27.4 0.00 0.00 0.00 30 1011.8
20260503222239 16 289 3.2 27.4 0.00 0.00 0.00 29 1011.7
20260503221739 17 282 4.8 27.4 0.00 0.00 0.00 29 1011.7
20260503221239 17 284 0.0 27.4 0.00 0.00 0.00 30 1011.6
20260503220739 17 283 1.6 27.4 0.00 0.00 0.00 28 1011.8
20260503220239 17 283 8.0 27.4 0.00 0.00 0.00 28 1011.8
20260503215738 16 259 1.6 27.4 0.00 0.00 0.00 29 1011.8
20260503215238 16 278 3.2 27.4 0.00 0.00 0.00 29 1011.8